This is the latest recevied weather packets stored in our database for station/object SQ7IQO. If no packets are shown the sender has not sent any weather packets the latest 10 day(s).
| Time | Temp. | Humidity | Pressure | Rain* | Wind** | Luminosity | Snow |
|---|---|---|---|---|---|---|---|
| 1787579935 | 17.22° C | 77% | 1022.7 hPa | 0 mm | 0.89 m/s, ° | - | - |
| 1787579875 | 17.22° C | 77% | 1022.7 hPa | 0 mm | 0.89 m/s, ° | - | - |
| 1787579815 | 16.67° C | 76% | 1022.7 hPa | 0 mm | 0.89 m/s, ° | - | - |
| 1787579755 | 17.22° C | 75% | 1022.7 hPa | 0 mm | 2.24 m/s, ° | - | - |
| 1787579695 | 17.78° C | 75% | 1022.7 hPa | 0 mm | 0.45 m/s, ° | - | - |
| 1787579635 | 17.22° C | 75% | 1022.7 hPa | 0 mm | 0 m/s | - | - |
| 1787579575 | 17.22° C | 74% | 1022.7 hPa | 0 mm | 0.89 m/s, ° | - | - |
| 1787579515 | 17.78° C | 75% | 1022.6 hPa | 0 mm | 1.34 m/s, ° | - | - |
| 1787579455 | 17.78° C | 74% | 1022.7 hPa | 0 mm | 0.89 m/s, ° | - | - |
| 1787579395 | 17.78° C | 75% | 1022.6 hPa | 0 mm | 0.89 m/s, ° | - | - |
| 1787579335 | 17.78° C | 75% | 1022.6 hPa | 0 mm | 0.45 m/s, ° | - | - |
| 1787579275 | 17.78° C | 73% | 1022.6 hPa | 0 mm | 0.45 m/s, ° | - | - |
| 1787579215 | 17.78° C | 71% | 1022.7 hPa | 0 mm | 1.79 m/s, ° | - | - |
| 1787579155 | 18.33° C | 74% | 1022.6 hPa | 0 mm | 1.34 m/s, ° | - | - |
| 1787579095 | 17.78° C | 73% | 1022.7 hPa | 0 mm | 0.89 m/s, ° | - | - |
| 1787579035 | 17.78° C | 72% | 1022.6 hPa | 0 mm | 0.89 m/s, ° | - | - |
| 1787578975 | 18.33° C | 74% | 1022.6 hPa | 0 mm | 0.45 m/s, ° | - | - |
| 1787578915 | 18.89° C | 76% | 1022.6 hPa | 0 mm | 0.45 m/s, ° | - | - |
| 1787578855 | 18.33° C | 77% | 1022.6 hPa | 0 mm | 0 m/s | - | - |
| 1787578795 | 17.78° C | 77% | 1022.6 hPa | 0 mm | 0.45 m/s, ° | - | - |
| 1787578735 | 17.22° C | 77% | 1022.7 hPa | 0 mm | 0.45 m/s, ° | - | - |
| 1787578675 | 17.22° C | 76% | 1022.6 hPa | 0 mm | 0.45 m/s, ° | - | - |
| 1787578615 | 17.78° C | 75% | 1022.6 hPa | 0 mm | 0.89 m/s, ° | - | - |
| 1787578555 | 17.78° C | 78% | 1022.6 hPa | 0 mm | 0 m/s | - | - |
| 1787578495 | 17.78° C | 78% | 1022.6 hPa | 0 mm | 0 m/s | - | - |
* Rain latest hour (hover to see other rain measurements)
** Current wind speed in m/s (hover to see current wind gust speed)